Location: Unspecified
(0.0000°N, 0.0000°E)
Time: 12:40:34
(UTC+00:00)

Vanguard 2 Rocket - Pass Details

Date: 13 December 2018
Orbit: 554 x 3326 km, 32.9° (Epoch: 15 July)

Event Time Altitude Azimuth Distance (km) Brightness Sun altitude
Rises 22:28:16 0° 223° (SW) 7,040 11.9 -58.8°
Reaches altitude 10° 22:35:54 10° 207° (SSW) 5,595 11.2 -60.0°
Maximum altitude 22:45:33 18° 170° (S) 4,155 10.3 -61.4°
Enters shadow 22:47:26 18° 160° (SSE) 4,017 10.2 -61.7°
Drops below altitude 10° 22:52:45 10° 130° (SE) 4,066 - -62.4°
Sets 22:56:54 0° 112° (ESE) 4,576 - -62.9°
